PBO Station Position Time Series. Reference Frame : NAM14
Format Version,1.1.1
4-character ID,P329
Station name,StewartRchCN2007
Begin Date, 2007-09-21
End Date, 2023-06-26
Release Date, 2023-06-27
Reference position, 40.0822146540 North Latitude, -123.4520470110 East Longitude, 1034.62320 meters elevation,
Date, North (mm), East (mm), Vertical (mm), North Std. Deviation (mm), East Std. Deviation (mm),              Vertical Std. Deviation (mm), Quality,
2007-09-21,0.00, 0.00, 0.00, 2.15, 1.64, 7.50, repro,
2007-09-22,-0.45, 0.74, 1.68, 2.11, 1.62, 7.31, repro,
2007-09-23,-0.71, 2.02, -5.83, 2.12, 1.62, 7.35, repro,
2007-09-24,-0.97, 1.92, 0.30, 2.16, 1.64, 7.52, repro,
2007-09-25,-2.10, 1.25, -3.17, 2.12, 1.60, 7.37, repro,
2007-09-26,-0.92, 0.42, 2.82, 2.14, 1.59, 7.32, repro,
2007-09-27,-0.79, 0.43, -0.19, 2.09, 1.59, 7.33, repro,
2007-09-28,-2.02, 0.55, -0.06, 2.13, 1.70, 7.54, repro,
2007-09-29,-2.77, 1.21, -1.46, 2.11, 1.65, 7.41, repro,
2007-09-30,-1.92, -0.67, 2.77, 2.12, 1.67, 7.48, repro,
2007-10-01,-0.17, -1.28, -8.51, 2.10, 1.65, 7.33, repro,
2007-10-02,-0.86, 1.21, 4.61, 2.15, 1.70, 7.60, repro,
2007-10-03,0.85, 1.71, -2.87, 2.10, 1.62, 7.38, repro,
2007-10-04,-0.90, 1.59, -0.12, 2.11, 1.63, 7.43, repro,
2007-10-05,-1.67, 1.69, 1.95, 2.14, 1.71, 7.70, repro,
2007-10-06,-1.23, -0.16, -2.48, 2.12, 1.66, 7.44, repro,
2007-10-07,-0.37, 1.22, -0.84, 2.14, 1.66, 7.43, repro,
2007-10-08,-1.46, 1.12, -0.07, 2.35, 1.76, 8.17, repro,
2007-10-09,-2.67, 2.25, -2.97, 2.26, 1.83, 8.13, repro,
2007-10-10,-0.06, 1.81, -6.36, 2.25, 1.70, 7.83, repro,
2007-10-11,-0.58, 1.41, -6.60, 2.10, 1.66, 7.45, repro,
2007-10-12,-1.26, -0.27, -1.54, 2.09, 1.65, 7.34, repro,
2007-10-13,0.33, 1.12, -4.81, 2.03, 1.59, 7.17, repro,
2007-10-14,0.25, 0.61, -1.34, 2.08, 1.63, 7.43, repro,
2007-10-15,0.09, 0.21, 2.35, 2.05, 1.61, 7.30, repro,
2007-10-16,-0.69, 1.88, 3.04, 2.09, 1.67, 7.39, repro,
2007-10-17,-0.50, 1.94, 3.55, 2.08, 1.63, 7.41, repro,
2007-10-18,0.26, 0.97, -1.30, 2.03, 1.59, 7.16, repro,
2007-10-19,-0.05, 2.58, 1.40, 2.05, 1.60, 7.27, repro,
2007-10-20,-0.17, 2.33, -1.09, 2.08, 1.64, 7.43, repro,
2007-10-21,-0.92, 1.63, -1.02, 2.05, 1.59, 7.23, repro,
2007-10-22,-1.47, 0.16, -6.14, 2.05, 1.59, 7.26, repro,
2007-10-23,-0.79, 2.06, -6.84, 2.15, 1.70, 7.61, repro,
2007-10-24,0.29, 1.54, -6.43, 2.16, 1.69, 7.63, repro,
2007-10-25,-0.48, 0.78, -6.86, 2.09, 1.63, 7.45, repro,
2007-10-26,-1.74, 0.79, -7.81, 2.08, 1.65, 7.41, repro,
2007-10-27,-0.80, 0.57, -6.95, 2.04, 1.60, 7.20, repro,
2007-10-28,-0.14, 1.69, -6.42, 2.03, 1.60, 7.22, repro,
2007-10-29,1.18, 0.73, -7.21, 2.27, 1.75, 7.81, repro,
2007-10-30,-0.55, 1.95, -6.55, 2.10, 1.65, 7.38, repro,
2007-10-31,-0.59, 1.72, -7.85, 2.11, 1.66, 7.46, repro,
2007-11-01,-0.03, 1.16, -4.91, 2.03, 1.57, 7.16, repro,
2007-11-02,-0.71, 0.51, -4.38, 2.01, 1.55, 7.01, repro,
2007-11-03,0.51, 1.33, -8.72, 2.00, 1.56, 7.07, repro,
2007-11-04,0.03, 1.20, -4.04, 2.01, 1.57, 7.06, repro,
2007-11-05,0.47, 1.85, -8.67, 2.01, 1.56, 7.03, repro,
2007-11-06,0.22, 1.23, -11.37, 2.07, 1.62, 7.31, repro,
2007-11-07,0.63, 1.08, -8.61, 2.01, 1.56, 7.03, repro,
2007-11-08,0.40, 1.79, -6.97, 2.04, 1.59, 7.14, repro,
2007-11-09,0.45, 0.81, -7.90, 2.06, 1.59, 7.19, repro,
2007-11-10,2.06, 0.95, -5.32, 2.00, 1.56, 7.06, repro,
2007-11-11,0.05, 0.93, -9.46, 2.01, 1.56, 7.07, repro,
2007-11-12,0.07, 0.92, -5.60, 2.01, 1.56, 7.09, repro,
2007-11-13,2.47, 0.92, -10.79, 2.02, 1.57, 7.14, repro,
2007-11-14,0.92, 1.59, -15.07, 2.05, 1.58, 7.22, repro,
2007-11-15,0.76, 1.15, -10.22, 2.04, 1.57, 7.14, repro,
2007-11-16,-0.00, 1.02, -13.11, 2.01, 1.56, 7.13, repro,
2007-11-17,-0.18, 0.47, -10.41, 2.01, 1.56, 7.08, repro,
2007-11-18,1.04, 1.77, -5.56, 2.01, 1.57, 7.12, repro,
2007-11-19,2.40, 0.19, -7.35, 2.06, 1.63, 7.35, repro,
2007-11-20,0.09, 0.06, -12.75, 2.09, 1.63, 7.42, repro,
2007-11-21,0.58, 1.26, -10.01, 2.09, 1.70, 7.61, repro,
2007-11-22,0.94, -0.56, -16.94, 2.06, 1.61, 7.18, repro,
2007-11-23,1.53, 0.13, -11.36, 2.09, 1.70, 7.63, repro,
2007-11-24,1.22, 0.20, -8.90, 2.03, 1.61, 7.17, repro,
2007-11-25,0.80, -0.16, -8.54, 2.13, 1.72, 7.52, repro,
2007-11-26,0.77, 0.57, -10.17, 2.25, 1.78, 8.00, repro,
2007-11-27,2.88, 0.49, -15.63, 2.08, 1.65, 7.31, repro,
2007-11-28,0.87, 1.16, -21.31, 2.15, 1.71, 7.53, repro,
2007-11-29,-0.02, -0.05, -9.87, 2.12, 1.71, 7.58, repro,
2007-11-30,0.14, -0.11, -13.10, 2.09, 1.68, 7.38, repro,
2007-12-01,0.20, -0.79, -6.75, 2.18, 1.78, 7.85, repro,
2007-12-02,0.35, 1.58, -5.79, 2.15, 1.77, 7.82, repro,
2007-12-03,2.78, 0.20, -7.99, 2.24, 1.84, 8.37, repro,
2007-12-04,2.88, 1.77, -14.16, 2.28, 1.92, 8.44, repro,
2007-12-05,1.15, 0.87, -10.41, 2.14, 1.78, 7.88, repro,
2007-12-06,1.32, 1.51, -5.16, 2.34, 2.05, 8.76, repro,
2007-12-07,-1.28, 2.24, -3.98, 2.28, 1.89, 8.39, repro,
2007-12-08,1.02, 0.64, -7.35, 2.23, 1.77, 7.86, repro,
2007-12-09,2.70, 0.92, -15.54, 2.37, 2.06, 8.80, repro,
2007-12-10,1.03, 0.92, -10.40, 2.19, 1.78, 7.80, repro,
2007-12-11,0.81, -0.52, -12.77, 2.17, 1.77, 7.71, repro,
2007-12-12,1.44, 1.51, -13.26, 2.16, 1.68, 7.78, repro,
2007-12-13,1.29, 0.40, -13.42, 2.16, 1.68, 7.53, repro,
2007-12-14,1.54, 1.52, -8.13, 2.08, 1.60, 7.35, repro,
2007-12-15,1.16, 1.86, -6.95, 2.08, 1.60, 7.35, repro,
2007-12-16,1.23, 0.53, -9.30, 2.07, 1.61, 7.34, repro,
2007-12-17,1.12, 2.56, -6.58, 2.13, 1.65, 7.43, repro,
2007-12-18,1.58, 1.67, -5.74, 2.07, 1.63, 7.35, repro,
2007-12-19,1.15, 1.02, -3.77, 2.16, 1.73, 7.90, repro,
2007-12-20,0.59, 1.22, -5.67, 2.09, 1.63, 7.45, repro,
2007-12-21,1.28, 1.57, -9.13, 2.22, 1.79, 8.05, repro,
2007-12-22,0.54, 1.81, -14.31, 2.23, 1.79, 8.12, repro,
2007-12-23,1.09, 3.06, -25.64, 2.10, 1.68, 7.51, repro,
2007-12-24,1.47, 2.72, -19.33, 2.29, 1.95, 8.24, repro,
2007-12-25,0.19, 1.97, -11.23, 2.15, 1.69, 7.56, repro,
2007-12-26,1.43, 1.26, -8.85, 2.09, 1.62, 7.41, repro,
2007-12-27,1.56, 2.23, -7.39, 2.13, 1.66, 7.60, repro,
2007-12-28,1.81, 2.06, -16.27, 2.13, 1.65, 7.56, repro,
2007-12-29,1.71, 3.07, -14.73, 2.10, 1.60, 7.40, repro,
2007-12-30,-0.72, 2.46, -13.11, 2.13, 1.65, 7.57, repro,
2007-12-31,1.31, 1.60, -13.46, 2.08, 1.57, 7.26, repro,
2008-01-01,0.26, 1.88, -13.60, 2.07, 1.58, 7.28, repro,
2008-01-02,0.82, 2.14, -12.62, 2.08, 1.58, 7.27, repro,
2008-01-03,0.22, 1.58, -2.03, 2.09, 1.58, 7.34, repro,
2008-01-04,0.16, 1.95, -9.21, 2.10, 1.59, 7.39, repro,
2008-01-05,-0.18, 0.76, 2.53, 2.09, 1.59, 7.39, repro,
2008-01-06,-0.10, 0.80, -4.61, 2.08, 1.59, 7.33, repro,
2008-01-07,-0.35, 1.57, -5.64, 2.03, 1.55, 7.10, repro,
2008-01-08,0.40, 3.85, -10.96, 2.16, 1.59, 7.48, repro,
2008-01-09,-0.07, 2.87, -16.97, 2.09, 1.57, 7.31, repro,
2008-01-10,2.52, 2.93, -13.73, 2.05, 1.56, 7.22, repro,
2008-01-11,-0.80, 2.95, -17.36, 2.03, 1.55, 7.13, repro,
2008-01-12,0.29, 3.36, -11.02, 2.02, 1.56, 7.13, repro,
2008-01-13,0.44, 2.34, -24.17, 2.04, 1.56, 7.14, repro,
2008-01-14,1.28, 2.85, -17.62, 2.04, 1.56, 7.17, repro,
2008-01-15,0.20, 2.68, -15.93, 2.03, 1.56, 7.12, repro,
2008-01-16,1.20, 2.78, -19.20, 2.05, 1.57, 7.16, repro,
2008-01-17,-1.12, 2.56, -14.47, 2.05, 1.57, 7.18, repro,
2008-01-18,-0.40, 1.61, -17.16, 2.04, 1.59, 7.22, repro,
2008-01-19,1.02, 2.74, -15.66, 2.04, 1.56, 7.19, repro,
2008-01-20,0.08, 3.23, -15.86, 2.02, 1.56, 7.10, repro,
2008-01-21,0.16, 2.23, -6.82, 2.05, 1.61, 7.27, repro,
2008-01-22,-0.70, 2.28, -18.78, 2.01, 1.55, 7.06, repro,
2008-01-23,-0.27, 2.04, -17.03, 2.07, 1.59, 7.20, repro,
2008-01-24,-1.08, 2.42, -13.82, 2.04, 1.56, 7.16, repro,
2008-01-25,-1.65, 2.44, -12.27, 2.02, 1.56, 7.14, repro,
2008-01-26,-1.03, 2.71, -10.80, 2.03, 1.56, 7.09, repro,
2008-01-27,-1.63, 4.07, -8.19, 2.08, 1.58, 7.21, repro,
2008-01-28,-0.48, 1.81, -4.59, 2.05, 1.56, 7.15, repro,
2008-01-29,0.44, 3.09, -9.40, 2.12, 1.67, 7.48, repro,
2008-01-30,0.15, 3.11, -16.48, 2.13, 1.63, 7.46, repro,
2008-01-31,1.06, 5.45, -14.49, 2.02, 1.56, 7.10, repro,
2008-02-01,-0.14, 3.77, -19.07, 2.01, 1.55, 7.06, repro,
2008-02-02,-0.82, 2.52, -16.55, 2.01, 1.55, 7.05, repro,
2008-02-03,-1.46, 3.57, -15.69, 2.06, 1.61, 7.23, repro,
2008-02-04,-0.39, 3.86, -14.89, 2.02, 1.57, 7.14, repro,
2008-02-05,1.26, 3.75, -20.30, 2.05, 1.63, 7.31, repro,
2008-02-06,-0.03, 4.10, -17.99, 2.06, 1.63, 7.31, repro,
2008-02-07,0.01, 3.19, -19.93, 2.06, 1.59, 7.28, repro,
2008-02-08,-0.43, 3.74, -17.52, 2.01, 1.55, 7.08, repro,
2008-02-09,0.19, 4.02, -17.19, 2.02, 1.56, 7.11, repro,
2008-02-10,-0.84, 4.45, -10.77, 2.02, 1.57, 7.14, repro,
2008-02-11,-0.13, 3.79, -16.04, 2.01, 1.56, 7.10, repro,
2008-02-12,0.17, 4.12, -14.53, 2.01, 1.55, 7.05, repro,
2008-02-13,-0.96, 4.08, -13.64, 2.01, 1.54, 7.01, repro,
2008-02-14,1.75, 3.71, -15.34, 2.02, 1.56, 7.08, repro,
2008-02-15,0.83, 3.43, -17.58, 2.11, 1.65, 7.40, repro,
2008-02-16,-0.16, 3.24, -12.42, 2.07, 1.61, 7.29, repro,
2008-02-17,0.24, 4.58, -13.50, 2.07, 1.59, 7.20, repro,
2008-02-18,-1.12, 3.52, -11.53, 2.01, 1.54, 7.05, repro,
2008-02-19,-0.86, 3.79, -10.27, 2.00, 1.55, 7.03, repro,
2008-02-20,-1.03, 3.78, -14.45, 2.02, 1.57, 7.10, repro,
2008-02-21,-1.05, 3.41, -9.25, 2.00, 1.57, 7.11, repro,
2008-02-22,-1.67, 4.78, -7.39, 2.01, 1.57, 7.12, repro,
2008-02-23,0.19, 3.25, -11.95, 2.07, 1.59, 7.21, repro,
2008-02-24,0.33, 6.08, -4.63, 2.02, 1.55, 7.09, repro,
2008-02-25,-0.91, 4.61, -21.42, 2.02, 1.56, 7.09, repro,
2008-02-26,-0.44, 2.83, -25.51, 2.07, 1.60, 7.25, repro,
2008-02-27,-1.14, 3.50, -17.94, 2.05, 1.60, 7.24, repro,
2008-02-28,-0.97, 3.13, -14.38, 2.06, 1.61, 7.27, repro,
2008-02-29,-1.87, 3.26, -10.26, 2.02, 1.56, 7.11, repro,
2008-03-01,0.04, 4.26, -15.83, 2.03, 1.57, 7.17, repro,
2008-03-02,-1.22, 4.34, -17.18, 2.05, 1.60, 7.24, repro,
2008-03-03,0.05, 4.19, -13.43, 2.06, 1.59, 7.20, repro,
2008-03-04,0.67, 3.96, -22.83, 2.07, 1.60, 7.21, repro,
2008-03-05,0.34, 3.53, -19.30, 2.15, 1.71, 7.72, repro,
2008-03-06,-0.73, 3.70, -13.78, 2.02, 1.54, 7.06, repro,
2008-03-07,-0.12, 4.15, -15.27, 2.02, 1.55, 7.08, repro,
2008-03-08,-1.16, 3.96, -15.17, 2.17, 1.64, 7.62, repro,
2008-03-09,-0.23, 4.01, -18.24, 2.02, 1.60, 7.27, repro,
2008-03-10,0.57, 3.66, -16.33, 2.02, 1.56, 7.09, repro,
2008-03-11,-0.12, 3.02, -16.34, 2.03, 1.56, 7.13, repro,
2008-03-12,-0.60, 3.54, -15.24, 2.07, 1.60, 7.41, repro,
2008-03-13,-0.12, 4.40, -10.64, 2.04, 1.59, 7.30, repro,
2008-03-14,1.73, 6.60, -15.74, 2.08, 1.65, 7.41, repro,
2008-03-15,-0.65, 3.02, -16.70, 2.07, 1.61, 7.28, repro,
2008-03-16,1.04, 2.36, -12.81, 2.05, 1.60, 7.25, repro,
2008-03-17,0.03, 3.54, -16.51, 2.18, 1.71, 7.92, repro,
2008-03-18,-1.60, 3.99, -13.99, 2.15, 1.69, 7.60, repro,
2008-03-19,-0.39, 4.08, -18.08, 2.04, 1.59, 7.21, repro,
2008-03-20,0.77, 4.31, -16.93, 2.03, 1.59, 7.20, repro,
2008-03-21,-0.01, 3.24, -19.58, 2.05, 1.59, 7.24, repro,
2008-03-22,1.50, 3.14, -20.75, 2.05, 1.59, 7.28, repro,
2008-03-23,0.57, 2.10, -15.97, 2.13, 1.63, 7.42, repro,
2008-03-24,1.42, 2.28, -25.46, 2.05, 1.59, 7.29, repro,
2008-03-25,-0.61, 4.51, -12.74, 2.13, 1.67, 7.56, repro,
2008-03-26,1.63, 4.04, -17.71, 2.21, 1.72, 7.72, repro,
2008-03-27,0.50, 3.18, -19.76, 2.10, 1.62, 7.42, repro,
2008-03-28,-0.15, 2.72, -17.17, 2.07, 1.59, 7.22, repro,
2008-03-29,0.25, 2.96, -12.36, 2.04, 1.56, 7.18, repro,
2008-03-30,1.41, 1.90, -15.43, 2.03, 1.56, 7.15, repro,
2008-03-31,2.20, 3.53, -17.01, 2.08, 1.61, 7.35, repro,
2008-04-01,0.62, 3.21, -16.23, 2.10, 1.60, 7.35, repro,
2008-04-02,0.33, 2.56, -15.86, 2.10, 1.58, 7.34, repro,
2008-04-03,0.81, 3.65, -15.05, 2.18, 1.65, 7.58, repro,
2008-04-04,1.04, 3.54, -16.12, 2.08, 1.61, 7.37, repro,
2008-04-05,0.56, 1.85, -9.80, 2.03, 1.56, 7.21, repro,
2008-04-06,-0.41, 2.69, -12.59, 2.04, 1.56, 7.21, repro,
2008-04-07,0.25, 1.98, -14.44, 2.04, 1.55, 7.18, repro,
2008-04-08,0.19, 1.63, -14.47, 2.17, 1.64, 7.50, repro,
2008-04-09,0.49, 2.45, -12.67, 2.10, 1.60, 7.39, repro,
2008-04-10,0.12, 1.81, -16.13, 2.03, 1.56, 7.21, repro,
2008-04-11,0.32, 0.80, -16.45, 2.03, 1.56, 7.20, repro,
2008-04-12,0.34, 2.99, -16.26, 2.11, 1.61, 7.44, repro,
2008-04-13,1.13, 2.09, -17.48, 2.09, 1.60, 7.34, repro,
2008-04-14,0.11, 1.87, -16.07, 2.06, 1.56, 7.24, repro,
2008-04-15,0.23, 2.33, -6.95, 2.07, 1.61, 7.32, repro,
2008-04-16,0.86, 1.14, -10.98, 2.13, 1.67, 7.55, repro,
2008-04-17,-0.49, 1.51, -11.16, 2.09, 1.60, 7.36, repro,
2008-04-18,-0.14, 1.46, -10.76, 2.12, 1.61, 7.46, repro,
2008-04-19,0.03, 0.90, -10.14, 2.05, 1.55, 7.19, repro,
2008-04-20,-1.63, 2.40, -11.80, 2.06, 1.56, 7.28, repro,
2008-04-21,-0.91, 1.92, -13.18, 2.03, 1.56, 7.24, repro,
2008-04-22,0.59, 2.64, -10.24, 2.10, 1.60, 7.40, repro,
2008-04-23,-0.33, 4.03, -21.53, 2.13, 1.63, 7.56, repro,
2008-04-24,0.22, 2.54, -16.53, 2.08, 1.58, 7.37, repro,
2008-04-25,0.52, 3.46, -16.20, 2.12, 1.60, 7.47, repro,
2008-04-26,1.43, 1.20, -25.09, 2.27, 1.68, 7.84, repro,
2008-04-27,0.56, 2.15, -15.00, 2.18, 1.64, 7.63, repro,
2008-04-28,0.05, 2.22, -17.28, 2.14, 1.59, 7.45, repro,
2008-04-29,0.84, 2.85, -11.62, 2.27, 1.66, 7.75, repro,
2008-04-30,-2.62, 3.73, -11.67, 2.15, 1.63, 7.54, repro,
2008-05-01,0.40, 2.63, -12.94, 2.11, 1.60, 7.46, repro,
2008-05-02,0.55, 2.35, -13.10, 2.12, 1.63, 7.50, repro,
2008-05-03,0.40, 1.31, -9.94, 2.09, 1.59, 7.40, repro,
2008-05-04,-0.72, 1.39, -10.42, 2.14, 1.61, 7.47, repro,
2008-05-05,-0.91, 1.89, -13.97, 2.12, 1.60, 7.47, repro,
2008-05-06,-1.04, 1.32, -11.40, 2.13, 1.61, 7.51, repro,
2008-05-07,-0.05, 2.84, -9.51, 2.14, 1.64, 7.58, repro,
2008-05-08,1.04, 0.54, -10.85, 2.31, 1.76, 8.18, repro,
2008-05-09,0.64, 1.85, -11.87, 2.14, 1.63, 7.57, repro,
2008-05-10,-0.31, 0.99, -5.77, 2.16, 1.64, 7.70, repro,
2008-05-11,-1.02, 1.12, -11.10, 2.15, 1.64, 7.61, repro,
2008-05-12,-2.14, 2.35, -9.42, 2.12, 1.60, 7.48, repro,
2008-05-13,-0.81, 1.89, -3.77, 2.13, 1.63, 7.51, repro,
2008-05-14,-0.94, 1.40, -17.22, 2.06, 1.54, 7.23, repro,
2008-05-15,-0.20, 2.72, -17.07, 2.10, 1.58, 7.38, repro,
2008-05-16,-0.85, 2.53, -11.67, 2.11, 1.60, 7.41, repro,
2008-05-17,-0.59, 2.54, -8.31, 2.15, 1.63, 7.57, repro,
2008-05-18,-0.75, 2.09, -6.37, 2.11, 1.60, 7.43, repro,
2008-05-19,-0.35, 2.62, -12.36, 2.11, 1.60, 7.45, repro,
2008-05-20,0.23, 3.85, -9.90, 2.08, 1.58, 7.37, repro,
2008-05-21,-1.05, 4.00, -6.68, 2.07, 1.58, 7.39, repro,
2008-05-22,0.88, 3.42, -1.55, 2.17, 1.67, 7.69, repro,
2008-05-23,-0.17, 2.37, -1.23, 2.07, 1.59, 7.42, repro,
2008-05-24,-0.41, 1.64, -10.40, 2.06, 1.55, 7.22, repro,
2008-05-25,-0.18, 1.92, -5.32, 2.05, 1.54, 7.18, repro,
2008-05-26,-0.19, 3.19, -7.91, 2.08, 1.60, 7.42, repro,
2008-05-27,0.03, 2.68, -9.09, 2.05, 1.56, 7.26, repro,
2008-05-28,0.48, 1.88, -11.37, 2.05, 1.55, 7.22, repro,
2008-05-29,1.15, 2.23, -14.75, 2.10, 1.59, 7.35, repro,
2008-05-30,0.24, 2.80, -6.34, 2.12, 1.60, 7.44, repro,
2008-05-31,1.78, 2.85, -10.90, 2.04, 1.54, 7.15, repro,
2008-06-01,1.18, 2.76, -13.30, 2.13, 1.61, 7.48, repro,
2008-06-02,0.48, 2.03, -11.30, 2.05, 1.54, 7.18, repro,
2008-06-03,1.05, 3.64, -10.73, 2.12, 1.60, 7.50, repro,
2008-06-04,-0.27, 3.57, -9.21, 2.06, 1.55, 7.24, repro,
2008-06-05,1.74, 1.65, -11.99, 2.05, 1.54, 7.19, repro,
2008-06-06,0.69, 2.69, -8.03, 2.13, 1.61, 7.46, repro,
2008-06-07,1.70, 1.19, -5.51, 2.13, 1.63, 7.53, repro,
2008-06-08,1.25, 2.51, -6.90, 2.11, 1.60, 7.45, repro,
2008-06-09,0.77, 2.67, -8.88, 2.11, 1.60, 7.42, repro,
2008-06-10,0.98, 3.52, -14.20, 2.06, 1.54, 7.18, repro,
2008-06-11,1.97, 2.81, -11.28, 2.05, 1.54, 7.16, repro,
2008-06-12,0.52, 2.45, -11.09, 2.08, 1.57, 7.31, repro,
2008-06-13,0.63, 3.01, -10.62, 2.07, 1.55, 7.31, repro,
2008-06-14,1.10, 2.09, -8.92, 2.11, 1.59, 7.39, repro,
2008-06-15,0.81, 2.36, -9.08, 2.12, 1.59, 7.39, repro,
2008-06-16,0.90, 2.00, -9.87, 2.05, 1.54, 7.16, repro,
2008-06-17,0.37, 2.75, -9.49, 2.07, 1.56, 7.28, repro,
2008-06-18,1.96, 2.24, -12.38, 2.07, 1.55, 7.28, repro,
2008-06-19,1.25, 2.61, -9.13, 2.15, 1.66, 7.80, repro,
2008-06-20,2.19, 2.73, -14.42, 2.10, 1.62, 7.45, repro,
2008-06-21,-0.48, 2.67, -9.05, 2.18, 1.65, 7.69, repro,
2008-06-22,0.37, 2.91, -12.01, 2.07, 1.56, 7.28, repro,
2008-06-23,0.70, 2.50, -7.32, 2.08, 1.56, 7.29, repro,
2008-06-24,1.14, 3.03, -10.76, 2.08, 1.55, 7.28, repro,
2008-06-25,0.73, 2.71, -7.78, 2.11, 1.58, 7.34, repro,
2008-06-26,1.11, 2.77, -5.87, 2.08, 1.60, 7.40, repro,
2008-06-27,-0.75, 2.24, -5.05, 2.06, 1.55, 7.24, repro,
2008-06-28,1.84, 0.63, -7.20, 2.11, 1.60, 7.43, repro,
2008-06-29,1.57, 2.75, -11.07, 2.17, 1.64, 7.56, repro,
2008-06-30,1.40, 2.27, -13.14, 2.08, 1.55, 7.27, repro,
2008-07-01,1.43, 2.24, -9.25, 2.06, 1.56, 7.25, repro,
2008-07-02,0.63, 1.09, -12.55, 2.07, 1.55, 7.25, repro,
2008-07-03,0.95, 1.95, 1.90, 2.07, 1.55, 7.28, repro,
2008-07-04,1.72, 1.19, 0.22, 2.10, 1.61, 7.47, repro,
2008-07-05,0.63, 2.69, -9.66, 2.07, 1.54, 7.24, repro,
2008-07-06,1.73, 2.60, -4.99, 2.08, 1.56, 7.28, repro,
2008-07-07,0.76, 2.37, -5.35, 2.10, 1.61, 7.43, repro,
2008-07-08,0.47, 1.65, -4.86, 2.06, 1.54, 7.21, repro,
2008-07-09,1.09, 2.64, -2.75, 2.10, 1.59, 7.36, repro,
2008-07-10,2.01, 1.75, -2.53, 2.13, 1.59, 7.36, repro,
2008-07-11,1.08, 1.98, -2.77, 2.19, 1.66, 7.63, repro,
2008-07-12,0.50, 2.53, -6.42, 2.08, 1.56, 7.30, repro,
2008-07-13,0.50, 2.70, -7.32, 2.13, 1.62, 7.53, repro,
2008-07-14,0.53, 3.58, 0.14, 2.12, 1.60, 7.45, repro,
2008-07-15,1.31, 2.04, -6.62, 2.07, 1.55, 7.22, repro,
2008-07-16,0.19, 1.38, -5.13, 2.07, 1.55, 7.20, repro,
2008-07-17,0.66, 2.54, -5.63, 2.08, 1.56, 7.30, repro,
2008-07-18,0.29, 2.04, -8.09, 2.20, 1.60, 7.59, repro,
2008-07-19,-0.56, 2.62, 1.85, 2.13, 1.56, 7.43, repro,
2008-07-20,1.01, 2.09, 2.16, 2.06, 1.54, 7.21, repro,
2008-07-21,0.33, 2.60, 2.41, 2.07, 1.56, 7.20, repro,
2008-07-22,0.33, 2.13, -2.03, 2.07, 1.55, 7.24, repro,
2008-07-23,1.32, 2.18, -4.40, 2.14, 1.57, 7.45, repro,
2008-07-24,0.72, 2.73, -3.23, 2.07, 1.56, 7.28, repro,
2008-07-25,0.60, 2.07, -6.19, 2.06, 1.54, 7.18, repro,
2008-07-26,1.10, 1.93, -1.15, 2.06, 1.54, 7.18, repro,
2008-07-27,0.49, 1.92, -3.76, 2.07, 1.54, 7.21, repro,
2008-07-28,1.11, 1.87, -0.46, 2.14, 1.59, 7.38, repro,
2008-07-29,0.79, 2.70, 0.33, 2.13, 1.56, 7.52, repro,
2008-07-30,0.10, 2.74, 6.21, 2.12, 1.56, 7.44, repro,
2008-07-31,-0.44, 2.72, 2.93, 2.06, 1.54, 7.19, repro,
2008-08-01,0.65, 1.90, 0.80, 2.07, 1.55, 7.23, repro,
2008-08-02,0.51, 1.76, -1.88, 2.07, 1.54, 7.22, repro,
2008-08-03,-0.08, 1.06, 4.29, 2.09, 1.58, 7.34, repro,
2008-08-04,0.85, 1.71, -1.41, 2.06, 1.54, 7.21, repro,
2008-08-05,1.28, 1.21, -2.29, 2.05, 1.53, 7.11, repro,
2008-08-06,1.36, 1.36, 2.09, 2.11, 1.56, 7.34, repro,
2008-08-07,1.03, 0.76, -2.23, 2.18, 1.61, 7.54, repro,
2008-08-08,-0.15, 0.95, -1.62, 2.17, 1.61, 7.54, repro,
2008-08-09,0.61, 2.51, 4.28, 2.12, 1.56, 7.36, repro,
2008-08-10,0.96, 1.40, -3.77, 2.19, 1.60, 7.53, repro,
2008-08-11,0.72, 1.22, -0.04, 2.18, 1.59, 7.46, repro,
2008-08-12,-0.12, 1.59, 1.61, 2.11, 1.56, 7.31, repro,
2008-08-13,-0.00, 0.03, 2.20, 2.12, 1.56, 7.39, repro,
2008-08-14,0.13, 3.00, -6.91, 2.12, 1.56, 7.35, repro,
2008-08-15,1.85, 2.02, -4.98, 2.13, 1.56, 7.36, repro,
2008-08-16,-0.17, 1.45, -2.40, 2.11, 1.55, 7.28, repro,
2008-08-17,-1.03, 2.44, 3.20, 2.11, 1.55, 7.29, repro,
2008-08-18,0.47, 1.15, 2.35, 2.11, 1.55, 7.29, repro,
2008-08-19,0.49, 1.40, 4.75, 2.10, 1.54, 7.25, repro,
2008-08-20,0.36, 1.60, 3.77, 2.13, 1.56, 7.41, repro,
2008-08-21,0.55, 1.84, -0.92, 2.12, 1.55, 7.31, repro,
2008-08-22,0.52, 0.70, 3.43, 2.10, 1.54, 7.25, repro,
2008-08-23,0.48, 0.04, 0.84, 2.10, 1.55, 7.26, repro,
2008-08-24,-0.01, 0.76, 6.07, 2.20, 1.62, 7.65, repro,
2008-08-25,1.63, 1.94, 0.77, 2.18, 1.59, 7.50, repro,
2008-08-26,-0.01, 0.96, 5.73, 2.12, 1.55, 7.32, repro,
2008-08-27,-0.37, 1.56, 1.87, 2.13, 1.58, 7.42, repro,
2008-08-28,0.49, 0.51, -3.80, 2.23, 1.65, 7.64, repro,
2008-08-29,0.44, 1.54, 2.47, 2.22, 1.62, 7.66, repro,
2008-08-30,0.48, 1.84, 7.99, 2.15, 1.58, 7.44, repro,
2008-08-31,1.51, 1.26, -3.03, 2.15, 1.57, 7.39, repro,
2008-09-01,-0.77, 1.31, -9.19, 2.15, 1.58, 7.43, repro,
2008-09-02,0.44, 1.58, -6.63, 2.13, 1.57, 7.36, repro,
2008-09-03,1.40, 1.26, -2.85, 2.13, 1.58, 7.39, repro,
2008-09-04,0.02, 1.43, -0.78, 2.35, 1.74, 8.15, repro,
2008-09-05,0.48, 1.04, -6.26, 2.22, 1.62, 7.60, repro,
2008-09-06,0.62, 1.01, -0.74, 2.12, 1.57, 7.34, repro,
2008-09-07,-0.07, 2.93, -2.44, 2.12, 1.58, 7.38, repro,
2008-09-08,0.16, 0.86, 3.78, 2.11, 1.57, 7.35, repro,
2008-09-09,-0.66, 2.07, 0.73, 2.29, 1.62, 7.73, repro,
2008-09-10,1.13, 1.83, 0.46, 2.31, 1.72, 7.98, repro,
2008-09-11,-0.65, 1.35, 3.10, 2.17, 1.60, 7.50, repro,
2008-09-12,0.34, 1.38, 0.28, 2.20, 1.65, 7.70, repro,
2008-09-13,-0.35, 1.57, 2.99, 2.28, 1.69, 7.89, repro,
2008-09-14,0.22, 1.85, 0.37, 2.30, 1.68, 7.91, repro,
2008-09-15,0.36, 2.55, 0.71, 2.21, 1.62, 7.62, repro,
2008-09-16,0.75, 0.84, -2.39, 2.11, 1.60, 7.40, repro,
2008-09-17,-0.87, 1.23, -8.03, 2.29, 1.66, 7.74, repro,
2008-09-18,-0.03, 1.61, -4.56, 2.11, 1.54, 7.24, repro,
2008-09-19,0.56, 2.64, -3.90, 2.26, 1.69, 7.99, repro,
2008-09-20,1.81, 1.44, -0.91, 2.12, 1.55, 7.30, repro,
2008-09-21,0.91, 1.54, -2.77, 2.10, 1.54, 7.24, repro,
2008-09-22,0.02, 0.33, -1.63, 2.13, 1.59, 7.53, repro,
2008-09-23,1.34, 0.39, 3.72, 2.18, 1.58, 7.46, repro,
2008-09-24,0.08, 1.49, 3.27, 2.20, 1.64, 7.67, repro,
2008-09-25,1.45, 0.79, -6.29, 2.16, 1.60, 7.67, repro,
2008-09-26,1.70, 0.51, -1.97, 2.11, 1.54, 7.25, repro,
2008-09-27,1.53, 1.62, -5.80, 2.14, 1.58, 7.36, repro,
2008-09-28,0.62, 1.23, -0.55, 2.10, 1.54, 7.23, repro,
2008-09-29,0.51, 0.95, -6.33, 2.23, 1.62, 7.61, repro,
2008-09-30,-1.47, 2.02, -0.43, 2.13, 1.55, 7.32, repro,
2008-10-01,-1.30, 3.21, -12.00, 2.19, 1.58, 7.50, repro,
2008-10-02,0.41, 3.47, -0.12, 2.14, 1.58, 7.40, repro,
2008-10-03,0.06, 1.38, 3.83, 2.15, 1.59, 7.42, repro,
2008-10-04,0.35, 2.51, -5.30, 2.12, 1.55, 7.30, repro,
2008-10-05,0.76, 1.10, -0.71, 2.12, 1.55, 7.29, repro,
2008-10-06,0.85, 1.41, -1.32, 2.12, 1.54, 7.24, repro,
2008-10-07,0.69, 1.51, -3.11, 2.13, 1.55, 7.29, repro,
2008-10-08,1.07, 1.25, -4.66, 2.12, 1.58, 7.34, repro,
2008-10-09,-0.75, 2.72, -2.58, 2.07, 1.53, 7.19, repro,
2008-10-10,0.58, 2.43, -8.65, 2.07, 1.53, 7.21, repro,
2008-10-11,0.35, 0.79, -9.23, 2.14, 1.59, 7.43, repro,
2008-10-12,0.82, 0.69, -12.18, 2.13, 1.58, 7.34, repro,
2008-10-13,0.96, 0.28, -7.40, 2.06, 1.53, 7.14, repro,
2008-10-14,-0.15, 1.89, -5.19, 2.06, 1.53, 7.17, repro,
2008-10-15,1.38, 2.08, -7.08, 2.18, 1.60, 7.48, repro,
2008-10-16,0.23, 1.39, -6.75, 2.12, 1.57, 7.40, repro,
2008-10-17,1.48, 1.47, -12.41, 2.07, 1.54, 7.20, repro,
2008-10-18,0.33, 1.72, -5.46, 2.06, 1.53, 7.14, repro,
2008-10-19,0.75, 1.32, -6.72, 2.05, 1.52, 7.09, repro,
2008-10-20,0.00, 1.15, -1.77, 2.06, 1.53, 7.14, repro,
2008-10-21,1.36, 1.29, -5.35, 2.13, 1.58, 7.40, repro,
2008-10-22,0.54, 1.79, -6.24, 2.06, 1.53, 7.13, repro,
2008-10-23,0.93, 1.83, -1.11, 2.10, 1.56, 7.26, repro,
2008-10-24,1.29, 0.98, -3.74, 2.06, 1.53, 7.12, repro,
2008-10-25,0.59, 1.67, 2.38, 2.12, 1.57, 7.36, repro,
2008-10-26,0.59, 0.92, -3.16, 2.13, 1.58, 7.40, repro,
2008-10-27,0.54, 1.89, -11.13, 2.05, 1.53, 7.14, repro,
2008-10-28,1.12, 1.53, -12.32, 2.13, 1.54, 7.19, repro,
2008-10-29,0.72, 0.53, -2.08, 2.21, 1.60, 7.46, repro,
2008-10-30,1.23, 1.84, 1.63, 2.07, 1.54, 7.19, repro,
2008-10-31,-1.01, 1.77, -7.87, 2.18, 1.61, 7.59, repro,
2008-11-01,0.52, 2.93, -16.61, 2.09, 1.55, 7.30, repro,
2008-11-02,0.22, 3.24, -5.29, 2.11, 1.59, 7.39, repro,
2008-11-03,1.88, 1.03, -4.91, 2.15, 1.60, 7.43, repro,
2008-11-04,1.52, 0.73, -2.25, 2.08, 1.57, 7.29, repro,
2008-11-05,0.56, 0.85, -7.16, 2.10, 1.57, 7.29, repro,
2008-11-06,1.21, 1.58, -12.28, 2.09, 1.60, 7.37, repro,
2008-11-07,1.27, 0.87, -6.70, 2.09, 1.60, 7.34, repro,
2008-11-08,0.79, 1.76, -11.01, 2.08, 1.59, 7.29, repro,
2008-11-09,-1.48, 1.68, -1.97, 2.11, 1.64, 7.54, repro,
2008-11-10,0.41, -0.29, -3.03, 2.10, 1.60, 7.36, repro,
2008-11-11,0.66, 1.14, -9.49, 2.19, 1.71, 7.85, repro,
2008-11-12,0.89, 1.39, -6.20, 2.06, 1.54, 7.19, repro,
2008-11-13,-0.63, 1.69, -4.25, 2.11, 1.61, 7.35, repro,
2008-11-14,0.30, 1.13, -4.60, 2.15, 1.64, 7.54, repro,
2008-11-15,-0.30, 1.03, -11.58, 2.17, 1.66, 7.64, repro,